When you browse on this site, cookies collect data to enhance your experience and personalize the content and advertising you see.
Visit our Privacy Policy to learn more. By continuing to use the site, you agree to this use of cookies and data.
EN

Hourly Weather Lubumbashi

Today, 8 August, Saturday

Time Temperature Precipitation Wind Pressure Humidity
00:00 +30°C° 0.1 mm 4 mps 720 mmHg 60%
01:00 +29°C° 0.1 mm 5 mps 720 mmHg 62%
02:00 +29°C° 0.1 mm 5 mps 720 mmHg 64%
03:00 +28°C° 0.5 mm 5 mps 720 mmHg 67%
04:00 +28°C° 0.5 mm 5 mps 720 mmHg 69%
05:00 +27°C° 0.5 mm 6 mps 720 mmHg 72%
06:00 +28°C° 0.1 mm 6 mps 720 mmHg 71%
07:00 +28°C° 0.1 mm 7 mps 721 mmHg 70%
08:00 +29°C° 0.1 mm 7 mps 721 mmHg 70%
09:00 +31°C° 0.5 mm 8 mps 721 mmHg 65%
10:00 +32°C° 0.5 mm 8 mps 721 mmHg 61%
11:00 +33°C° 0.5 mm 8 mps 721 mmHg 56%
12:00 +33°C° 1.8 mm 7 mps 720 mmHg 58%
13:00 +32°C° 1.8 mm 5 mps 719 mmHg 60%
14:00 +32°C° 1.8 mm 4 mps 718 mmHg 62%
15:00 +30°C° 0.4 mm 4 mps 718 mmHg 65%
16:00 +30°C° 0.4 mm 5 mps 717 mmHg 67%
17:00 +29°C° 0.4 mm 5 mps 716 mmHg 70%
18:00 +29°C° 0.3 mm 4 mps 717 mmHg 71%
19:00 +29°C° 0.3 mm 4 mps 717 mmHg 72%
20:00 +29°C° 0.3 mm 4 mps 718 mmHg 73%
21:00 +28°C° 0.3 mm 4 mps 718 mmHg 74%
22:00 +28°C° 0.3 mm 5 mps 718 mmHg 75%
23:00 +28°C° 0.3 mm 5 mps 718 mmHg 77%

Tomorrow, 9 August, Sunday

Time Temperature Precipitation Wind Pressure Humidity
00:00 +27°C° 0.8 mm 5 mps 718 mmHg 79%
01:00 +26°C° 0.8 mm 6 mps 718 mmHg 81%
02:00 +26°C° 0.8 mm 6 mps 717 mmHg 83%
03:00 +26°C° 0.2 mm 5 mps 717 mmHg 83%
04:00 +26°C° 0.2 mm 4 mps 717 mmHg 83%
05:00 +26°C° 0.2 mm 3 mps 717 mmHg 82%
06:00 +26°C° 0.2 mm 3 mps 718 mmHg 82%
07:00 +26°C° 0.2 mm 3 mps 718 mmHg 82%
08:00 +26°C° 0.2 mm 4 mps 718 mmHg 82%
09:00 +27°C° 0 mm 4 mps 719 mmHg 78%
10:00 +28°C° 0 mm 4 mps 719 mmHg 74%
11:00 +28°C° 0 mm 4 mps 719 mmHg 71%
12:00 +29°C° 0.7 mm 4 mps 718 mmHg 66%
13:00 +30°C° 0.7 mm 5 mps 718 mmHg 62%
14:00 +32°C° 0.7 mm 5 mps 717 mmHg 58%
15:00 +30°C° 1.1 mm 6 mps 717 mmHg 62%
16:00 +30°C° 1.1 mm 6 mps 717 mmHg 66%
17:00 +29°C° 1.1 mm 6 mps 716 mmHg 70%
18:00 +28°C° 1.3 mm 6 mps 717 mmHg 73%
19:00 +28°C° 1.3 mm 6 mps 717 mmHg 76%
20:00 +27°C° 1.3 mm 6 mps 718 mmHg 79%
21:00 +27°C° 1 mm 6 mps 718 mmHg 81%
22:00 +26°C° 1 mm 5 mps 719 mmHg 82%
23:00 +26°C° 1 mm 5 mps 719 mmHg 83%

Day after tomorrow, 10 August, Monday

Time Temperature Precipitation Wind Pressure Humidity
00:00 +26°C° 0.9 mm 5 mps 719 mmHg 84%
01:00 +25°C° 0.9 mm 5 mps 718 mmHg 86%
02:00 +25°C° 0.9 mm 5 mps 718 mmHg 87%
03:00 +25°C° 0.3 mm 5 mps 718 mmHg 87%
04:00 +25°C° 0.3 mm 5 mps 718 mmHg 87%
05:00 +25°C° 0.3 mm 5 mps 718 mmHg 87%
06:00 +25°C° 0 mm 5 mps 719 mmHg 86%
07:00 +25°C° 0 mm 5 mps 719 mmHg 85%
08:00 +25°C° 0 mm 5 mps 720 mmHg 84%
09:00 +26°C° 0 mm 6 mps 720 mmHg 81%
10:00 +26°C° 0 mm 6 mps 720 mmHg 79%
11:00 +27°C° 0 mm 6 mps 720 mmHg 77%
12:00 +28°C° 0.4 mm 7 mps 720 mmHg 73%
13:00 +29°C° 0.4 mm 7 mps 719 mmHg 69%
14:00 +31°C° 0.4 mm 8 mps 718 mmHg 65%
15:00 +30°C° 0.1 mm 7 mps 718 mmHg 64%
16:00 +30°C° 0.1 mm 7 mps 718 mmHg 63%
17:00 +30°C° 0.1 mm 7 mps 718 mmHg 62%
18:00 +29°C° 0 mm 6 mps 718 mmHg 65%
19:00 +29°C° 0 mm 5 mps 719 mmHg 68%
20:00 +28°C° 0 mm 4 mps 719 mmHg 71%
21:00 +27°C° 0 mm 3 mps 719 mmHg 73%
22:00 +27°C° 0 mm 3 mps 720 mmHg 74%
23:00 +27°C° 0 mm 3 mps 720 mmHg 75%

11 August, Tuesday

Time Temperature Precipitation Wind Pressure Humidity
00:00 +26°C° 0 mm 3 mps 720 mmHg 77%
01:00 +26°C° 0 mm 4 mps 720 mmHg 78%
02:00 +25°C° 0 mm 4 mps 719 mmHg 79%
03:00 +25°C° 0 mm 4 mps 719 mmHg 80%
04:00 +25°C° 0 mm 4 mps 719 mmHg 81%
05:00 +25°C° 0 mm 4 mps 719 mmHg 81%
06:00 +25°C° 0 mm 4 mps 720 mmHg 79%
07:00 +26°C° 0 mm 5 mps 720 mmHg 78%
08:00 +26°C° 0 mm 6 mps 721 mmHg 76%
09:00 +28°C° 0 mm 6 mps 721 mmHg 69%
10:00 +29°C° 0 mm 6 mps 721 mmHg 62%
11:00 +32°C° 0 mm 6 mps 721 mmHg 55%
12:00 +33°C° 0 mm 6 mps 721 mmHg 51%
13:00 +34°C° 0 mm 6 mps 720 mmHg 48%
14:00 +35°C° 0 mm 6 mps 719 mmHg 44%
15:00 +35°C° 0 mm 6 mps 719 mmHg 45%
16:00 +35°C° 0 mm 5 mps 718 mmHg 46%
17:00 +34°C° 0 mm 5 mps 718 mmHg 47%
18:00 +33°C° 0 mm 4 mps 718 mmHg 50%
19:00 +33°C° 0 mm 3 mps 718 mmHg 53%
20:00 +31°C° 0 mm 3 mps 719 mmHg 56%
21:00 +30°C° 0 mm 3 mps 719 mmHg 58%
22:00 +30°C° 0 mm 3 mps 719 mmHg 60%
23:00 +29°C° 0 mm 4 mps 720 mmHg 63%

12 August, Wednesday

Time Temperature Precipitation Wind Pressure Humidity
00:00 +29°C° 0.1 mm 4 mps 719 mmHg 66%
01:00 +28°C° 0.1 mm 4 mps 719 mmHg 69%
02:00 +27°C° 0.1 mm 4 mps 718 mmHg 72%
03:00 +27°C° 0 mm 3 mps 719 mmHg 73%
04:00 +27°C° 0 mm 3 mps 719 mmHg 74%
05:00 +26°C° 0 mm 3 mps 719 mmHg 76%
06:00 +27°C° 0 mm 4 mps 719 mmHg 74%
07:00 +27°C° 0 mm 4 mps 720 mmHg 73%
08:00 +28°C° 0 mm 4 mps 720 mmHg 72%
09:00 +29°C° 0 mm 5 mps 720 mmHg 67%
10:00 +30°C° 0 mm 5 mps 720 mmHg 62%
11:00 +32°C° 0 mm 5 mps 720 mmHg 58%
12:00 +33°C° 0.1 mm 5 mps 719 mmHg 54%
13:00 +34°C° 0.1 mm 5 mps 719 mmHg 51%
14:00 +35°C° 0.1 mm 5 mps 718 mmHg 47%
15:00 +35°C° 0.2 mm 6 mps 718 mmHg 50%
16:00 +34°C° 0.2 mm 6 mps 717 mmHg 53%
17:00 +33°C° 0.2 mm 6 mps 717 mmHg 55%
18:00 +32°C° 0.5 mm 5 mps 717 mmHg 60%
19:00 +30°C° 0.5 mm 5 mps 718 mmHg 64%
20:00 +30°C° 0.5 mm 4 mps 718 mmHg 68%
21:00 +29°C° 1.1 mm 4 mps 718 mmHg 71%
22:00 +28°C° 1.1 mm 4 mps 719 mmHg 74%
23:00 +27°C° 1.1 mm 4 mps 719 mmHg 77%

13 August, Thursday

Time Temperature Precipitation Wind Pressure Humidity
00:00 +27°C° 0.7 mm 4 mps 719 mmHg 78%
01:00 +27°C° 0.7 mm 4 mps 718 mmHg 78%
02:00 +27°C° 0.7 mm 4 mps 718 mmHg 79%
03:00 +27°C° 0 mm 4 mps 718 mmHg 80%
04:00 +26°C° 0 mm 3 mps 718 mmHg 82%
05:00 +26°C° 0 mm 3 mps 718 mmHg 83%
06:00 +27°C° 0 mm 3 mps 719 mmHg 81%
07:00 +27°C° 0 mm 3 mps 719 mmHg 79%
08:00 +27°C° 0 mm 4 mps 720 mmHg 77%
09:00 +29°C° 0 mm 4 mps 720 mmHg 71%
10:00 +30°C° 0 mm 4 mps 720 mmHg 64%
11:00 +32°C° 0 mm 4 mps 720 mmHg 58%
12:00 +33°C° 0.3 mm 3 mps 720 mmHg 56%
13:00 +33°C° 0.3 mm 3 mps 719 mmHg 54%
14:00 +33°C° 0.3 mm 3 mps 718 mmHg 53%
15:00 +33°C° 0 mm 3 mps 718 mmHg 55%
16:00 +32°C° 0 mm 4 mps 717 mmHg 57%
17:00 +32°C° 0 mm 4 mps 717 mmHg 60%
18:00 +30°C° 0 mm 4 mps 717 mmHg 62%
19:00 +30°C° 0 mm 3 mps 717 mmHg 64%
20:00 +29°C° 0 mm 2 mps 718 mmHg 66%
21:00 +29°C° 0 mm 2 mps 718 mmHg 69%
22:00 +29°C° 0 mm 2 mps 718 mmHg 71%
23:00 +28°C° 0 mm 3 mps 719 mmHg 73%
Show more